Alva, OK

9:43 AM CST on February 22, 2018 (GMT -0600)
Alva Regional

Weather History for KAVK - October, 2012

Change the Weather History Date:

Tuesday, October 30, 2012

  Actual Average Record
Temperature  
Mean Temperature 62 °F -  
Max Temperature 84 °F 65 °F 97 °F (1950)
Min Temperature 41 °F 41 °F 19 °F (1993)
Degree Days  
Heating Degree Days 2    
Growing Degree Days 12 (Base 50)    
Moisture  
Dew Point 35 °F    
Average Humidity 42    
Maximum Humidity 70    
Minimum Humidity 19    
Precipitation  
Precipitation 0.00 in - - ()
Sea Level Pressure  
Sea Level Pressure 29.97 in    
Wind  
Wind Speed 11 mph (West)    
Max Wind Speed 16 mph    
Max Gust Speed 25 mph    
Visibility 10 miles    
Events      
Averages and records for this station are not official NWS values.
T = Trace of Precipitation, MM = Missing Value Source: NWS Daily Summary

Daily Weather History Graph

Daily Weather History Graph

Search for Another Location

Airport or City:

Trip Planner

Search our weather history database for the weather conditions in past years. The results will help you decide how hot, cold, wet, or windy it might be!

Date:

Astronomy

Oct. 30, 2012 Rise Set
Actual Time 7:56 AM CDT 6:39 PM CDT
Civil Twilight 7:30 AM CDT 7:05 PM CDT
Nautical Twilight 6:59 AM CDT 7:36 PM CDT
Astronomical Twilight 6:29 AM CDT 8:06 PM CDT
Moon 7:12 PM CDT (10/30) 8:43 AM CDT (10/30)
Length of Visible Light 11h 35m
Length of Day
10h 42m
Full, 99% of the Moon is Illuminated
Oct 30
Full
Nov 6
Last Quarter
Nov 13
New
Nov 20
First Quarter
Nov 28
Full

Hourly Weather History & Observations

Time (CDT) Temp. Windchill Dew Point Humidity Pressure Visibility Wind Dir Wind Speed Gust Speed Precip Events Conditions
12:00 AM 46.4 °F 41.1 °F 32.0 °F 57% 30.05 in 10.0 mi SSW 11.5 mph - N/A   Clear
12:20 AM 46.4 °F 41.5 °F 32.0 °F 57% 30.05 in 10.0 mi SSW 10.4 mph - N/A   Clear
12:40 AM 44.6 °F 39.2 °F 32.0 °F 61% 30.05 in 10.0 mi SSW 10.4 mph - N/A   Clear
1:00 AM 46.4 °F 41.5 °F 32.0 °F 57% 30.05 in 10.0 mi SW 10.4 mph - N/A   Clear
1:20 AM 46.4 °F 41.1 °F 32.0 °F 57% 30.04 in 10.0 mi SW 11.5 mph - N/A   Clear
1:40 AM 46.4 °F 41.1 °F 32.0 °F 57% 30.05 in 10.0 mi SW 11.5 mph - N/A   Clear
2:00 AM 46.4 °F 41.1 °F 32.0 °F 57% 30.04 in 10.0 mi SW 11.5 mph - N/A   Clear
2:20 AM 48.2 °F - 32.0 °F 54% 30.03 in 10.0 mi SW 11.5 mph - N/A   Clear
2:40 AM 48.2 °F - 32.0 °F 54% 30.03 in 10.0 mi SW 10.4 mph - N/A   Clear
3:00 AM 48.2 °F - 32.0 °F 54% 30.03 in 10.0 mi SW 10.4 mph - N/A   Mostly Cloudy
3:20 AM 48.2 °F - 32.0 °F 54% 30.02 in 10.0 mi WSW 12.7 mph - N/A   Mostly Cloudy
3:40 AM 48.2 °F - 32.0 °F 54% 30.02 in 10.0 mi SW 13.8 mph - N/A   Partly Cloudy
4:00 AM 48.2 °F - 32.0 °F 54% 30.01 in 10.0 mi SW 12.7 mph - N/A   Partly Cloudy
4:20 AM 46.4 °F 41.1 °F 32.0 °F 57% 30.01 in 10.0 mi SW 11.5 mph - N/A   Clear
5:00 AM 44.6 °F 39.2 °F 32.0 °F 61% 30.01 in 10.0 mi SW 10.4 mph - N/A   Clear
5:20 AM 44.6 °F 39.2 °F 32.0 °F 61% 30.01 in 10.0 mi SW 10.4 mph - N/A   Partly Cloudy
5:40 AM 44.6 °F 39.7 °F 32.0 °F 61% 30.01 in 10.0 mi WSW 9.2 mph - N/A   Clear
6:00 AM 46.4 °F 41.5 °F 32.0 °F 57% 30.00 in 10.0 mi WSW 10.4 mph - N/A   Clear
6:20 AM 44.6 °F 40.2 °F 32.0 °F 61% 30.00 in 10.0 mi WSW 8.1 mph - N/A   Clear
6:40 AM 44.6 °F 40.2 °F 32.0 °F 61% 30.00 in 10.0 mi WSW 8.1 mph - N/A   Clear
7:20 AM 44.6 °F 40.7 °F 32.0 °F 61% 30.00 in 10.0 mi WSW 6.9 mph - N/A   Clear
7:40 AM 41.0 °F 36.4 °F 32.0 °F 70% 29.99 in 10.0 mi WSW 6.9 mph - N/A   Clear
8:00 AM 41.0 °F 35.2 °F 32.0 °F 70% 29.99 in 10.0 mi SW 9.2 mph - N/A   Clear
8:20 AM 44.6 °F 39.7 °F 32.0 °F 61% 30.00 in 10.0 mi SW 9.2 mph - N/A   Clear
8:40 AM 46.4 °F 44.3 °F 33.8 °F 62% 30.00 in 9.0 mi WSW 4.6 mph - N/A   Clear
9:00 AM 51.8 °F - 35.6 °F 54% 29.99 in 10.0 mi WSW 9.2 mph - N/A   Clear
9:20 AM 53.6 °F - 35.6 °F 51% 29.99 in 10.0 mi WSW 10.4 mph - N/A   Clear
9:40 AM 55.4 °F - 35.6 °F 47% 29.99 in 10.0 mi WSW 13.8 mph 19.6 mph N/A   Clear
10:00 AM 59.0 °F - 35.6 °F 42% 29.98 in 10.0 mi WSW 13.8 mph - N/A   Clear
10:20 AM 60.8 °F - 35.6 °F 39% 29.96 in 10.0 mi SW 15.0 mph - N/A   Clear
10:40 AM 62.6 °F - 35.6 °F 37% 29.96 in 10.0 mi WSW 16.1 mph - N/A   Clear
11:00 AM 64.4 °F - 35.6 °F 34% 29.96 in 10.0 mi West 13.8 mph 19.6 mph N/A   Clear
11:20 AM 68.0 °F - 35.6 °F 30% 29.97 in 10.0 mi WSW 12.7 mph 16.1 mph N/A   Clear
11:40 AM 68.0 °F - 35.6 °F 30% 29.96 in 10.0 mi West 11.5 mph 18.4 mph N/A   Clear
12:00 PM 69.8 °F - 35.6 °F 28% 29.96 in 10.0 mi West 6.9 mph - N/A   Clear
12:20 PM 71.6 °F - 35.6 °F 27% 29.95 in 10.0 mi West 6.9 mph - N/A   Clear
12:40 PM 73.4 °F - 35.6 °F 25% 29.94 in 10.0 mi West 8.1 mph - N/A   Clear
1:00 PM 75.2 °F - 35.6 °F 24% 29.93 in 10.0 mi WNW 6.9 mph - N/A   Clear
1:20 PM 77.0 °F - 35.6 °F 22% 29.92 in 10.0 mi NW 13.8 mph 17.3 mph N/A   Clear
1:40 PM 78.8 °F - 35.6 °F 21% 29.91 in 10.0 mi WNW 9.2 mph 16.1 mph N/A   Clear
2:00 PM 80.6 °F - 35.6 °F 20% 29.90 in 10.0 mi WNW 9.2 mph 16.1 mph N/A   Clear
2:20 PM 80.6 °F - 37.4 °F 21% 29.89 in 10.0 mi NW 12.7 mph - N/A   Clear
2:40 PM 82.4 °F - 37.4 °F 20% 29.88 in 10.0 mi NW 8.1 mph - N/A   Clear
3:00 PM 82.4 °F - 37.4 °F 20% 29.87 in 10.0 mi West 6.9 mph - N/A   Clear
3:20 PM 84.2 °F - 37.4 °F 19% 29.87 in 10.0 mi NNW 12.7 mph 25.3 mph N/A   Clear
3:40 PM 84.2 °F - 37.4 °F 19% 29.87 in 10.0 mi North 15.0 mph 19.6 mph N/A   Clear
4:00 PM 84.2 °F - 37.4 °F 19% 29.87 in 10.0 mi North 12.7 mph 24.2 mph N/A   Clear
4:20 PM 82.4 °F - 37.4 °F 20% 29.87 in 10.0 mi North 12.7 mph 21.9 mph N/A   Clear
4:40 PM 82.4 °F - 37.4 °F 20% 29.87 in 10.0 mi North 12.7 mph 18.4 mph N/A   Clear
5:00 PM 82.4 °F - 37.4 °F 20% 29.87 in 10.0 mi North 13.8 mph - N/A   Clear
5:20 PM 80.6 °F - 37.4 °F 21% 29.88 in 10.0 mi North 12.7 mph - N/A   Clear
5:40 PM 80.6 °F - 37.4 °F 21% 29.89 in 10.0 mi North 16.1 mph 20.7 mph N/A   Clear
6:00 PM 77.0 °F - 39.2 °F 26% 29.89 in 10.0 mi NNE 15.0 mph 19.6 mph N/A   Clear
6:20 PM 73.4 °F - 39.2 °F 29% 29.91 in 10.0 mi NNE 11.5 mph - N/A   Clear
6:40 PM 71.6 °F - 37.4 °F 29% 29.92 in 7.0 mi NNE 11.5 mph - N/A   Clear
7:00 PM 69.8 °F - 37.4 °F 31% 29.93 in 8.0 mi NNE 10.4 mph - N/A   Clear
7:40 PM 68.0 °F - 37.4 °F 33% 29.94 in 7.0 mi NNE 12.7 mph - N/A   Clear
8:20 PM 64.4 °F - 37.4 °F 37% 29.95 in 10.0 mi NNE 11.5 mph - N/A   Clear
8:40 PM 64.4 °F - 35.6 °F 34% 29.96 in 10.0 mi North 12.7 mph - N/A   Clear
9:00 PM 62.6 °F - 37.4 °F 39% 29.97 in 10.0 mi North 12.7 mph - N/A   Clear
9:40 PM 59.0 °F - 37.4 °F 45% 29.99 in 10.0 mi North 9.2 mph - N/A   Clear
10:00 PM 59.0 °F - 35.6 °F 42% 29.99 in 10.0 mi North 8.1 mph - N/A   Clear
10:20 PM 59.0 °F - 37.4 °F 45% 29.99 in 10.0 mi North 9.2 mph - N/A   Clear
11:00 PM 55.4 °F - 37.4 °F 51% 30.00 in 10.0 mi North 11.5 mph - N/A   Clear
11:20 PM 57.2 °F - 37.4 °F 48% 30.00 in 10.0 mi NNE 12.7 mph - N/A   Clear
11:40 PM 55.4 °F - 37.4 °F 51% 30.00 in 6.0 mi NNE 11.5 mph - N/A   Haze